CDT,Max TemperatureF,Mean TemperatureF,Min TemperatureF,Max Dew PointF,MeanDew PointF,Min DewpointF,Max Humidity, Mean Humidity, Min Humidity, Max Sea Level PressureIn, Mean Sea Level PressureIn, Min Sea Level PressureIn, Max VisibilityMiles, Mean VisibilityMiles, Min VisibilityMiles, Max Wind SpeedMPH, Mean Wind SpeedMPH, Max Gust SpeedMPH,PrecipitationIn, CloudCover, Events, WindDirDegrees
2011-3-1,41,32,21,34,24,12,93,79,68,30.25,30.06,29.98,10,10,10,23,14,32,0.00,0,,227
2011-3-2,23,13,3,14,3,-6,80,67,58,30.54,30.44,30.28,10,10,10,21,14,24,0.00,0,,38
2011-3-3,46,35,24,37,30,18,100,84,71,30.22,30.02,29.89,10,8,4,16,11,20,0.00,2,,136
2011-3-4,33,28,23,34,30,23,100,98,93,30.18,30.05,29.94,5,2,1,23,12,28,0.00,6,,358
2011-3-5,26,20,14,19,14,9,86,78,69,30.37,30.32,30.25,10,10,10,22,16,28,0.00,7,,349
2011-3-6,32,23,14,32,20,10,100,90,75,30.32,30.21,30.08,10,8,1,20,5,24,0.00,6,Rain-Snow,145
2011-3-7,32,29,26,30,28,27,100,95,86,30.12,30.10,30.07,10,3,0,16,8,,0.00,8,Fog-Rain-Snow,23
2011-3-8,37,34,32,34,33,30,100,94,81,30.15,30.09,30.03,5,2,0,17,9,22,0.00,8,Fog-Rain-Snow,81
2011-3-9,33,32,32,32,32,30,100,97,93,30.13,29.98,29.91,7,3,1,21,14,28,0.13,8,Rain-Snow,349
2011-3-10,32,28,23,28,26,23,100,93,86,30.26,30.22,30.16,7,5,2,21,11,26,0.00,7,,311
2011-3-11,48,36,24,43,32,23,100,88,76,30.11,29.86,29.71,10,8,4,25,14,30,0.00,0,,174
2011-3-12,33,28,24,30,22,19,93,77,69,30.16,29.98,29.79,10,10,10,34,26,47,0.00,7,,307
2011-3-13,26,20,14,21,15,9,93,82,74,30.42,30.37,30.28,10,8,2,15,9,18,0.00,8,Snow,9
2011-3-14,42,32,21,36,28,19,100,90,70,30.43,30.30,30.18,10,6,0,14,5,,0.00,4,Fog,180
2011-3-15,46,39,32,39,33,30,100,83,66,30.18,30.08,30.02,10,9,7,16,11,20,0.00,0,,204
2011-3-16,60,46,33,50,40,32,100,82,59,30.06,29.91,29.74,10,9,5,24,12,29,0.00,0,,187
2011-3-17,53,48,44,48,44,41,100,86,67,29.97,29.73,29.62,10,7,1,20,13,29,0.00,2,Rain,241
2011-3-18,41,36,32,34,33,30,100,86,75,30.36,30.27,30.13,10,10,4,13,8,17,0.00,4,,332
2011-3-19,51,40,28,37,33,28,100,82,50,30.40,30.29,30.10,10,6,0,23,7,30,0.00,4,Fog-Rain-Snow,132
2011-3-20,53,48,42,52,45,37,100,95,76,30.05,29.91,29.82,10,5,1,22,14,29,0.33,7,Rain,179
2011-3-21,48,40,33,45,39,34,100,94,87,30.11,30.04,29.95,10,4,0,16,7,23,0.00,4,Fog,36
2011-3-22,44,40,37,41,40,37,100,96,87,29.87,29.65,29.39,10,5,1,31,22,46,0.07,8,Rain,104
2011-3-23,37,34,30,37,34,27,100,98,86,29.96,29.60,29.40,10,4,0,18,11,24,0.01,8,Fog-Rain-Snow,13
2011-3-24,32,28,24,27,22,19,93,77,64,30.25,30.16,30.03,10,10,10,15,9,20,0.00,6,,25
2011-3-25,37,34,30,28,27,25,87,76,65,30.12,30.06,30.04,10,10,10,10,6,,0.00,7,,77
2011-3-26,33,32,30,23,20,18,69,62,52,30.15,30.12,30.06,10,10,10,20,13,24,0.00,6,,86
2011-3-27,35,30,26,23,20,16,80,68,55,30.25,30.19,30.15,10,10,10,13,8,18,0.00,3,,87
2011-3-28,37,32,26,25,22,19,80,66,52,30.26,30.20,30.16,10,10,10,15,9,20,0.00,3,,104
2011-3-29,39,34,30,30,26,21,100,73,52,30.31,30.26,30.21,10,10,10,9,5,10,0.00,7,,112
2011-3-30,44,38,32,32,23,16,87,55,34,30.21,30.08,29.93,10,10,10,9,4,,0.00,6,,112
2011-3-31,48,40,33,39,32,28,100,74,54,29.89,29.73,29.64,10,9,2,16,7,22,0.12,7,Rain,179